Terug naar catalogus

STARLINK-3125

ActiefCommunicatieVLEO
NORAD 49451·PAYLOAD·🇺🇸 United States

Gelanceerd Nov 13, 2021 vanaf Cape Canaveral Space Force Station

Loading…

Volgende Passages (komende 24 uur)

TLE

VersSource: CelesTrak SupGP

Epoch: Sep 14, 2026, 14:35 UTC

1 49451C 21104AV  26257.60812500 -.00020911  00000+0 -63448-3 0  2574
2 49451  53.1581  79.4392 0001422  88.7617 206.0727 15.33561722    18

Volg STARLINK-3125 in realtime met AllMySat

Download on the App Store